Location: Running Springs
(34.2078°N, 117.1092°W)
Time: 15:26:56
(UTC+00:00)

Daily predictions for brighter satellites

Satellite Brightness Start Highest point End
(mag) Time Altitude Azimuth Time Altitude Azimuth Time Altitude Azimuth
YAOGAN 6 3.7 12:04:45 10° NNW 12:07:11 22° WNW 12:07:11 22° WNW
H-2A R/B 2.4 12:02:55 10° NNE 12:07:54 66° ESE 12:13:00 10° S
Cosmos 1805 3.6 12:05:29 10° NNW 12:08:54 36° W 12:10:49 21° SW
Cosmos 1707 4.1 12:11:13 10° SSE 12:14:36 38° E 12:18:01 10° NNE
DMSP B5D2-2 4.1 12:11:56 10° S 12:17:01 56° W 12:22:07 10° NNW
Cosmos 1553 Rocket 4.1 12:11:09 10° NNW 12:17:14 56° W 12:23:12 10° SSW
Iridium 51 4.2 12:15:52 14° SSW 12:18:30 43° W 12:21:44 10° NNW
Cosmos 1867 4.4 12:14:06 10° NW 12:18:34 26° WSW 12:23:00 10° SSW
Cosmos 1515 Rocket 3.5 12:16:14 10° SSW 12:20:39 67° W 12:25:04 10° N
Cosmos 921 Rocket 3.9 12:19:17 19° WSW 12:21:18 29° WNW 12:25:02 10° N
Cosmos 1461 3.2 12:20:20 10° NW 12:23:48 35° WSW 12:27:16 10° S
USA 290 4.2 12:23:06 10° N 12:25:55 32° ENE 12:28:42 10° SE
NOSS 2-2 (D) 4.5 12:25:15 10° NW 12:30:23 56° WSW 12:37:38 10° SSE
Cosmos 1470 Rocket 3.6 12:26:24 10° NNW 12:30:43 61° W 12:35:04 10° S
Cosmos 2278 Rocket 3.2 12:29:10 10° NW 12:33:29 23° W 12:37:47 10° SSW
USA 308 3.2 12:32:13 15° WSW 12:35:05 43° NW 12:38:50 10° NNE
Cosmos 1939 Rocket 2.6 12:32:48 10° N 12:36:34 79° WNW 12:40:20 10° SSW
Chandra Rocket (1) 3.1 12:33:51 13° WSW 12:36:42 45° SSE 12:45:17 10° E
Cosmos 1048 Rocket 4.2 12:38:47 10° SSW 12:44:00 55° WNW 12:49:12 10° N
YAOGAN 11 4.1 12:39:54 10° S 12:44:20 75° WSW 12:48:51 10° NNW
ATLAS 2AS CENTAUR R/B 3.5 12:37:48 10° WSW 12:44:39 38° NW 12:51:19 10° NNE
SL-16 R/B 2.9 12:40:53 10° SW 12:45:59 34° WNW 12:51:07 10° N
Cosmos 1975 4.4 12:44:22 10° NW 12:46:38 15° W 12:48:53 10° SW
Cosmos 1766 3.5 12:44:17 10° NNW 12:47:45 40° W 12:51:13 10° SSW
COSMO-SKYMED 1 3.8 12:46:17 10° SSE 12:50:26 48° ENE 12:54:37 10° N
Cosmos 1674 3.1 12:48:26 10° SSW 12:51:35 34° W 12:54:46 10° NNW
ARGOS 3.4 12:47:17 10° NNE 12:52:40 76° ESE 12:58:00 10° S
KORONAS-FOTON 4.0 12:49:28 10° SSW 12:52:59 44° W 12:56:31 10° N
